Frankfort, MI

7:57 AM EDT on March 26, 2017 (GMT -0400)
Frankfort

Weather History for KFKS - May, 2013

Change the Weather History Date:

Thursday, May 2, 2013

  Actual Average (KMBL) Record (KMBL)
Temperature  
Mean Temperature 46 °F -  
Max Temperature 53 °F 60 °F 88 °F (1959)
Min Temperature 38 °F 39 °F 21 °F (1950)
Degree Days  
Heating Degree Days 19    
Moisture  
Dew Point 36 °F    
Average Humidity 74    
Maximum Humidity 89    
Minimum Humidity 59    
Precipitation  
Precipitation 0.00 in - - ()
Sea Level Pressure  
Sea Level Pressure 30.24 in    
Wind  
Wind Speed 6 mph (NNE)    
Max Wind Speed 17 mph    
Max Gust Speed 28 mph    
Visibility 10 miles    
Events Rain    
Averages and records for this station are not official NWS values.
T = Trace of Precipitation, MM = Missing Value Source: NWS Daily Summary

Daily Weather History Graph

Daily Weather History Graph

Search for Another Location

Airport or City:

Trip Planner

Search our weather history database for the weather conditions in past years. The results will help you decide how hot, cold, wet, or windy it might be!

Date:

Astronomy

May. 02, 2013 Rise Set
Actual Time 6:33 AM EDT 8:51 PM EDT
Civil Twilight 6:00 AM EDT 9:23 PM EDT
Nautical Twilight 5:20 AM EDT 10:03 PM EDT
Astronomical Twilight 4:36 AM EDT 10:48 PM EDT
Moon 2:38 AM EDT (5/2) 1:22 PM EDT (5/2)
Length of Visible Light 15h 22m
Length of Day
14h 17m
Waning Gibbous, 48% of the Moon is Illuminated
May 2
Waning Gibbous
May 9
New
May 18
First Quarter
May 25
Full
May 31
Last Quarter

Hourly Weather History & Observations

Time (EDT) Temp. Windchill Dew Point Humidity Pressure Visibility Wind Dir Wind Speed Gust Speed Precip Events Conditions
12:15 AM 45.9 °F 43.6 °F 35.2 °F 66% 30.26 in 10.0 mi NNE 4.6 mph - N/A   Scattered Clouds
12:36 AM 44.8 °F 41.6 °F 34.7 °F 68% 30.26 in 10.0 mi NNE 5.8 mph - N/A   Scattered Clouds
12:56 AM 44.1 °F 41.5 °F 34.7 °F 70% 30.27 in 10.0 mi North 4.6 mph - N/A   Scattered Clouds
1:16 AM 43.3 °F 41.7 °F 34.2 °F 70% 30.27 in 10.0 mi NE 3.5 mph - N/A   Clear
1:36 AM 42.8 °F - 34.0 °F 71% 30.27 in 10.0 mi Calm Calm - N/A   Clear
1:56 AM 41.9 °F 40.0 °F 34.0 °F 73% 30.27 in 10.0 mi NE 3.5 mph - N/A   Clear
2:36 AM 41.2 °F 36.0 °F 33.8 °F 75% 30.25 in 10.0 mi NE 8.1 mph - N/A   Clear
2:56 AM 41.2 °F 36.6 °F 33.8 °F 75% 30.25 in 10.0 mi NNE 6.9 mph - N/A   Clear
3:16 AM 41.2 °F 37.3 °F 33.8 °F 75% 30.25 in 10.0 mi North 5.8 mph - N/A   Scattered Clouds
3:37 AM 41.2 °F 37.3 °F 33.8 °F 75% 30.25 in 10.0 mi NNE 5.8 mph - N/A   Mostly Cloudy
3:57 AM 40.8 °F - 33.8 °F 76% 30.25 in 10.0 mi Calm Calm - N/A   Scattered Clouds
4:17 AM 40.3 °F 34.9 °F 33.8 °F 78% 30.25 in 10.0 mi NE 8.1 mph - N/A   Clear
4:32 AM 40.1 °F 36.1 °F 33.8 °F 78% 30.25 in 10.0 mi North 5.8 mph - N/A   Clear
4:52 AM 39.7 °F 35.6 °F 33.8 °F 79% 30.25 in 10.0 mi NNE 5.8 mph - N/A   Clear
5:12 AM 39.6 °F 35.4 °F 33.8 °F 80% 30.25 in 10.0 mi NE 5.8 mph - N/A   Clear
5:32 AM 39.6 °F 34.7 °F 33.8 °F 80% 30.26 in 10.0 mi NNE 6.9 mph - N/A   Clear
5:52 AM 39.6 °F 37.4 °F 34.3 °F 82% 30.26 in 10.0 mi North 3.5 mph - N/A   Clear
6:12 AM 39.6 °F 37.4 °F 34.7 °F 83% 30.26 in 10.0 mi NE 3.5 mph - N/A   Scattered Clouds
6:32 AM 39.4 °F 37.2 °F 34.5 °F 83% 30.26 in 10.0 mi NNE 3.5 mph - N/A   Scattered Clouds
6:53 AM 39.4 °F 36.1 °F 34.7 °F 83% 30.26 in 10.0 mi NNE 4.6 mph - N/A   Clear
7:13 AM 39.6 °F - 34.7 °F 83% 30.26 in 10.0 mi Calm Calm - N/A   Clear
7:33 AM 40.1 °F 36.9 °F 34.9 °F 82% 30.27 in 10.0 mi NNE 4.6 mph - N/A   Clear
7:53 AM 40.8 °F 36.2 °F 35.2 °F 80% 30.27 in 10.0 mi NE 6.9 mph - N/A   Clear
8:13 AM 41.2 °F 37.3 °F 35.2 °F 79% 30.28 in 10.0 mi North 5.8 mph - N/A   Clear
8:33 AM 41.9 °F 37.5 °F 35.2 °F 77% 30.28 in 10.0 mi NE 6.9 mph - N/A   Clear
8:53 AM 42.4 °F 38.1 °F 35.8 °F 77% 30.28 in 10.0 mi North 6.9 mph - N/A   Clear
9:13 AM 43.7 °F 39.7 °F 35.8 °F 74% 30.28 in 10.0 mi NNE 6.9 mph - N/A   Clear
9:33 AM 44.8 °F 41.0 °F 36.1 °F 72% 30.27 in 10.0 mi NE 6.9 mph - N/A   Clear
9:54 AM 45.9 °F 41.7 °F 36.5 °F 70% 30.27 in 10.0 mi NE 8.1 mph - N/A   Clear
10:14 AM 47.8 °F - 37.6 °F 68% 30.26 in 10.0 mi NNE 5.8 mph - N/A   Clear
10:34 AM 48.6 °F - 37.6 °F 66% 30.26 in 10.0 mi NNE 5.8 mph - N/A   Clear
10:54 AM 50.2 °F - 38.5 °F 64% 30.25 in 10.0 mi ENE 6.9 mph - N/A   Clear
11:14 AM 51.3 °F - 38.8 °F 63% 30.25 in 10.0 mi North 8.1 mph - N/A   Clear
11:34 AM 49.3 °F - 38.1 °F 65% 30.25 in 10.0 mi North 9.2 mph - N/A   Scattered Clouds
11:54 AM 49.8 °F - 38.1 °F 64% 30.25 in 10.0 mi NNE 8.1 mph - N/A   Scattered Clouds
12:14 PM 51.8 °F - 39.4 °F 63% 30.24 in 10.0 mi North 5.8 mph - N/A   Unknown
12:34 PM 51.4 °F - 38.8 °F 62% 30.23 in 10.0 mi North 8.1 mph - N/A   Unknown
12:55 PM - - - N/A% 30.23 in - North - - N/A   Unknown
1:15 PM 53.4 °F - 39.6 °F 59% 30.23 in 10.0 mi NNW 10.4 mph 16.1 mph N/A   Unknown
1:35 PM 49.1 °F - 38.1 °F 66% 30.22 in 10.0 mi NNW 11.5 mph 17.3 mph N/A   Scattered Clouds
1:55 PM 50.2 °F - 38.5 °F 64% 30.23 in 10.0 mi NNW 10.4 mph 17.3 mph N/A   Scattered Clouds
2:15 PM 49.3 °F - 38.5 °F 66% 30.23 in 10.0 mi North 9.2 mph 25.3 mph N/A   Scattered Clouds
2:35 PM 48.7 °F - 37.9 °F 66% 30.23 in 10.0 mi NNW 15.0 mph 21.9 mph N/A   Clear
2:55 PM 50.2 °F - 37.9 °F 63% 30.22 in 10.0 mi North 12.7 mph 24.2 mph N/A   Clear
3:15 PM 51.1 °F - 38.3 °F 62% 30.21 in 10.0 mi North 9.2 mph 24.2 mph N/A   Clear
3:36 PM 50.9 °F - 38.3 °F 62% 30.20 in 10.0 mi North 10.4 mph 23.0 mph N/A   Mostly Cloudy
4:16 PM 52.0 °F - 38.5 °F 60% 30.20 in 10.0 mi North 9.2 mph 19.6 mph N/A   Scattered Clouds
4:36 PM 50.5 °F - 38.7 °F 64% 30.19 in 10.0 mi North 10.4 mph 24.2 mph N/A   Scattered Clouds
4:56 PM 49.5 °F - 37.9 °F 65% 30.19 in 10.0 mi North 9.2 mph 23.0 mph N/A   Mostly Cloudy
5:16 PM 49.1 °F - 37.6 °F 64% 30.20 in 10.0 mi North 12.7 mph 19.6 mph N/A   Mostly Cloudy
5:36 PM 47.8 °F - 37.4 °F 67% 30.20 in 10.0 mi North 11.5 mph 20.7 mph N/A   Mostly Cloudy
5:56 PM 47.5 °F - 37.4 °F 68% 30.21 in 10.0 mi North 11.5 mph 20.7 mph N/A   Mostly Cloudy
6:16 PM 44.4 °F 36.9 °F 36.1 °F 73% 30.22 in 10.0 mi North 17.3 mph 24.2 mph N/A   Mostly Cloudy
6:36 PM 43.3 °F 36.5 °F 35.8 °F 75% 30.25 in 10.0 mi North 13.8 mph 27.6 mph N/A   Mostly Cloudy
6:57 PM 41.7 °F 34.1 °F 35.6 °F 79% 30.24 in 10.0 mi North 15.0 mph 24.2 mph N/A   Mostly Cloudy
7:17 PM 40.8 °F 34.5 °F 34.9 °F 79% 30.22 in 10.0 mi NNE 10.4 mph 21.9 mph N/A   Overcast
7:37 PM 40.3 °F 34.4 °F 35.1 °F 82% 30.22 in 10.0 mi North 9.2 mph 23.0 mph N/A   Overcast
7:52 PM 40.1 °F 36.9 °F 35.1 °F 82% 30.22 in 10.0 mi NNE 4.6 mph - N/A   Overcast
8:12 PM 39.7 °F 34.3 °F 34.9 °F 83% 30.21 in 10.0 mi North 8.1 mph 20.7 mph N/A   Overcast
8:32 PM 39.4 °F 34.5 °F 34.9 °F 84% 30.20 in 10.0 mi NE 6.9 mph 18.4 mph N/A   Overcast
8:52 PM 39.4 °F 32.7 °F 34.9 °F 84% 30.20 in 10.0 mi NE 10.4 mph 19.6 mph N/A   Overcast
9:12 PM 39.6 °F 32.5 °F 34.9 °F 83% 30.22 in 10.0 mi ENE 11.5 mph 17.3 mph N/A   Overcast
9:32 PM 41.0 °F 35.2 °F 35.4 °F 81% 30.25 in 10.0 mi NNW 9.2 mph - N/A   Overcast
9:53 PM 40.6 °F 38.6 °F 35.2 °F 81% 30.24 in 10.0 mi North 3.5 mph - N/A   Overcast
10:13 PM 39.7 °F 34.9 °F 35.2 °F 84% 30.23 in 10.0 mi NNE 6.9 mph 16.1 mph N/A Rain Light Rain
10:33 PM 39.4 °F 34.5 °F 35.8 °F 87% 30.23 in 10.0 mi NNE 6.9 mph - N/A   Overcast
10:53 PM 39.4 °F - 35.6 °F 86% 30.24 in 10.0 mi Calm Calm - N/A   Overcast
11:13 PM 39.2 °F 33.6 °F 35.8 °F 88% 30.23 in 10.0 mi North 8.1 mph - N/A   Overcast
11:33 PM 39.0 °F 34.0 °F 35.6 °F 88% 30.21 in 10.0 mi NE 6.9 mph - N/A Rain Light Rain
11:53 PM 38.8 °F 34.6 °F 35.8 °F 89% 30.22 in 10.0 mi North 5.8 mph - N/A   Overcast